Wind_Speed
9 9 7 8 8 9 12 13 12 13 13 12 12 12 12 14 17 18 17 15 13 14 13 12 11 9 8 9 8 6 4 5 8 8 6 5 3 3 4 5 6 6 5 5 4 3 3 4 5 5 6 6 6 6 6 7 6 6 6 6 6 6 6 6 5 4 3 3 2 2 3 3 5 6 7 8 8 9 10 10 10 10 11 11 12
12 11 9 10 10 11 13 14 13 13 13 12 12 12 12 14 16 16 16 14 12 12 12 12 12 10 10 10 8 7 6 4 6 7 7 7 5 3 4 5 5 4 4 4 4 4 3 2 3 4 5 6 7 7 8 8 8 7 7 6 5 6 6 6 6 5 4 3 2 1 1 2 3 4 5 6 7 8 8 8 9 9 9 9 10
11 11 10 11 12 12 14 14 13 13 11 11 12 11 11 12 14 15 15 14 13 13 14 14 15 14 13 12 9 8 7 6 5 6 6 6 6 4 4 4 4 4 3 3 2 2 2 2 1 2 3 3 5 6 7 8 9 9 8 7 6 5 5 6 6 6 5 4 3 2 1 0 1 2 3 4 5 6 6 7 7 7 8 8 8
10 10 8 10 14 13 13 14 13 13 11 12 14 13 12 13 14 14 15 15 15 15 15 17 18 18 17 15 12 10 8 7 6 6 6 6 6 6 5 4 3 3 2 3 3 2 1 1 0 1 2 2 3 4 4 6 7 8 8 7 7 6 6 5 6 5 5 5 4 3 2 2 1 1 2 3 3 4 5 5 6 6 6 6 7
9 9 8 10 14 12 11 12 13 14 14 15 16 15 14 14 14 14 14 15 17 17 16 18 19 19 19 17 15 13 10 8 7 7 7 6 6 6 5 4 3 2 2 3 3 4 3 1 0 1 2 2 2 2 3 3 5 6 6 6 6 6 6 6 6 6 6 5 4 3 3 3 2 2 2 2 2 2 3 4 4 5 5 5 6
10 9 10 11 12 11 11 11 11 13 15 16 17 16 15 14 13 13 13 14 16 15 15 17 18 18 19 19 18 16 13 11 10 8 7 7 7 6 6 5 4 3 2 1 1 2 2 1 1 0 0 1 1 2 2 2 3 4 4 4 4 4 5 6 6 6 6 6 5 5 4 4 4 3 3 2 2 2 2 2 3 3 4 5 5
11 10 10 10 11 11 11 11 9 10 13 15 16 16 15 14 13 13 14 14 14 13 12 14 15 16 16 17 18 16 14 12 11 9 8 7 8 7 7 7 6 5 3 2 2 2 1 1 1 0 1 0 0 1 2 2 2 3 3 4 3 3 3 4 5 6 7 7 7 6 6 6 5 5 4 4 3 3 2 1 1 2 3 3 4
14 13 11 11 12 12 13 12 10 9 10 13 14 14 14 13 13 13 14 14 13 12 12 12 13 14 14 15 16 16 15 14 12 11 9 9 9 9 9 9 9 8 6 5 4 3 3 3 3 2 2 1 0 1 2 3 3 3 3 3 3 3 3 3 4 5 6 7 8 8 8 7 7 7 6 5 5 4 3 2 1 1 1 2 3
14 14 15 16 15 15 14 12 11 10 10 12 14 14 14 14 14 13 14 14 13 13 13 12 13 13 13 14 14 14 15 15 14 13 12 12 11 11 11 11 12 11 11 9 8 6 5 5 4 4 4 3 2 2 2 3 4 4 3 3 4 3 3 3 3 4 4 5 6 7 7 8 8 8 7 7 6 5 4 3 2 1 1 0 1
11 12 15 16 15 14 13 11 11 11 11 12 13 14 15 15 14 14 15 16 14 13 14 14 13 13 13 13 12 12 12 14 15 15 14 14 13 13 12 11 12 13 13 13 12 9 8 8 7 7 7 5 4 4 3 3 4 4 4 3 4 3 3 3 2 2 3 3 4 4 5 7 7 8 8 8 7 6 5 4 3 3 2 1 0
9 9 11 12 12 12 11 10 10 9 10 12 13 14 14 14 14 14 15 16 14 12 12 14 13 12 12 11 10 10 10 11 12 13 13 13 13 13 13 13 13 14 14 15 14 13 12 10 9 9 8 7 6 5 5 6 6 5 4 4 4 4 3 3 3 3 3 4 4 4 5 7 7 8 8 7 7 7 6 5 4 3 3 3 2
9 8 9 10 11 11 10 9 9 9 9 11 13 13 14 14 15 15 14 15 14 13 12 13 11 9 8 7 7 8 9 9 10 10 11 11 12 12 13 13 14 16 16 15 15 15 14 13 12 12 11 10 8 7 7 7 8 6 5 5 5 5 4 4 4 4 4 5 5 5 6 7 6 6 6 5 5 5 5 5 4 4 4 4 4
8 7 7 7 8 8 7 7 8 9 9 10 12 13 13 15 16 15 15 15 15 14 14 12 11 9 7 6 6 7 8 8 8 8 8 9 10 12 14 14 13 15 16 16 16 17 17 16 15 14 14 12 11 10 9 9 9 8 5 5 5 6 6 4 4 5 5 6 6 5 5 5 5 3 3 2 3 3 3 3 4 4 5 5 5
8 7 6 5 5 5 6 7 8 9 9 9 11 12 12 14 15 16 16 16 15 15 15 14 12 10 8 7 6 7 8 8 8 7 6 6 7 10 14 16 15 14 13 14 15 17 19 19 17 15 15 14 13 12 10 10 11 9 7 6 5 6 8 7 5 5 5 5 6 5 4 4 4 3 2 2 2 2 2 2 3 3 4 5 6
9 8 8 7 6 6 5 6 7 7 6 7 9 11 11 12 14 15 16 16 15 15 14 14 13 10 9 8 7 7 7 7 7 5 5 4 5 7 11 15 17 15 12 11 13 15 19 19 17 15 14 15 16 16 13 12 11 11 9 9 7 7 9 9 9 8 6 5 5 4 4 5 5 4 3 3 3 2 2 2 2 3 4 5 6
8 8 9 9 8 6 5 5 5 5 4 6 7 8 9 11 12 13 15 15 12 13 14 13 12 10 9 9 8 7 6 5 5 5 5 4 5 5 6 9 13 15 14 13 13 14 15 15 15 15 15 16 18 18 16 14 12 13 12 12 11 10 9 10 11 11 10 9 7 6 4 5 6 6 4 4 3 3 3 3 3 3 4 5 6
8 8 7 7 8 7 5 5 6 6 6 6 6 6 7 8 9 10 12 12 12 14 15 13 12 11 10 7 6 6 5 6 5 5 5 5 5 6 6 4 7 11 13 14 15 15 15 14 13 11 11 14 16 16 16 15 14 15 15 14 13 12 11 10 10 11 12 13 11 10 9 7 7 7 7 7 6 5 5 4 4 4 5 5 6
9 8 6 6 7 7 6 5 6 7 7 7 7 7 6 7 7 8 8 10 11 12 12 11 12 12 11 9 6 4 4 6 6 5 6 6 7 7 6 5 4 5 7 9 12 13 14 15 14 10 8 12 15 15 16 16 16 17 18 17 15 14 13 12 11 11 12 13 14 14 13 11 10 10 9 9 9 8 8 7 7 6 6 7 7
9 10 7 5 4 5 4 4 4 6 8 7 7 7 6 7 7 7 7 7 8 8 9 9 10 10 10 10 8 6 6 7 7 7 8 9 9 8 7 6 5 4 5 6 8 9 10 12 13 12 11 14 14 13 15 18 18 19 19 18 17 16 16 14 14 13 12 14 15 15 14 13 12 11 11 10 10 10 10 10 9 9 9 9 9
8 9 9 7 5 4 3 3 5 6 7 6 5 4 5 6 6 5 4 4 5 7 8 8 8 8 8 8 7 5 6 7 6 6 7 8 8 7 7 7 6 6 7 7 8 10 10 10 10 11 12 14 15 15 17 17 16 18 19 18 18 18 18 17 16 15 15 15 17 17 17 16 15 14 13 12 13 14 14 13 13 12 11 11 11
8 8 9 8 7 5 4 4 5 6 6 4 4 4 5 5 5 4 2 3 4 6 7 7 7 6 6 6 4 3 4 4 3 3 3 4 4 4 5 6 7 7 8 9 9 10 10 10 9 10 11 12 16 20 17 11 11 14 16 16 16 15 16 18 17 18 18 17 17 18 18 18 19 19 18 17 17 17 17 16 15 15 14 14 14
8 9 9 9 8 6 5 5 4 4 4 4 4 5 4 4 4 4 4 3 3 2 3 4 4 3 3 4 3 2 3 2 2 2 1 3 5 7 9 10 9 7 7 9 9 7 7 6 7 8 8 9 13 15 11 8 9 11 12 13 13 12 12 13 15 17 19 20 21 20 18 19 21 21 21 21 21 20 20 19 18 17 16 17 17
9 9 9 8 6 5 4 3 3 3 3 3 3 4 3 2 2 3 2 2 2 2 2 3 3 2 2 2 3 3 3 3 3 3 6 9 10 11 12 12 10 8 7 6 4 3 2 2 4 4 5 7 9 10 8 8 9 10 12 12 12 11 9 8 10 12 16 21 22 20 20 21 22 22 22 23 23 23 24 23 21 20 18 18 18
10 9 8 7 5 5 5 5 6 7 6 6 6 5 5 4 4 3 3 2 2 2 2 2 2 2 4 4 4 4 4 5 6 8 11 11 11 11 12 10 8 7 6 5 4 3 3 1 3 3 1 2 5 8 9 9 9 10 13 11 9 7 4 4 6 8 12 16 16 15 17 20 22 24 25 24 24 24 25 25 23 22 20 19 19
11 10 9 8 7 7 8 8 8 9 9 9 10 10 9 9 8 7 5 4 3 3 2 2 2 2 2 3 4 5 6 7 8 9 9 8 8 8 9 9 8 7 4 4 5 4 4 4 4 4 2 2 1 4 7 9 10 11 12 9 7 7 5 3 4 6 9 12 11 12 15 16 19 22 22 21 21 22 25 25 24 23 22 21 20
13 12 10 10 9 8 8 8 8 8 8 8 9 9 9 8 8 7 7 5 4 3 2 2 1 1 1 1 2 3 4 5 6 6 5 6 6 6 6 6 6 5 2 2 2 2 2 4 5 4 2 2 1 1 4 7 9 10 11 9 7 8 7 5 5 5 7 9 10 10 12 14 15 17 18 17 18 19 21 21 21 22 22 23 23
14 13 12 11 10 9 9 8 8 8 8 8 8 8 7 7 6 5 5 5 4 3 3 3 2 1 1 0 0 1 2 3 3 4 4 4 5 6 7 6 4 4 2 1 2 1 1 1 1 1 1 2 2 1 2 4 6 6 7 7 7 7 8 8 8 8 8 10 10 10 11 12 13 14 15 15 16 17 17 18 18 19 20 22 23
14 13 12 11 11 10 9 8 8 8 8 9 8 7 6 5 5 5 5 5 5 4 4 4 4 3 2 1 1 0 0 1 2 3 4 5 6 7 8 8 7 7 4 1 2 3 4 4 3 3 3 2 1 1 1 2 4 5 5 6 7 8 9 10 10 10 10 11 12 12 11 11 12 13 13 13 14 15 16 17 19 20 20 21 21
14 13 12 11 11 10 9 8 8 7 8 8 7 6 5 4 5 5 5 5 5 5 5 5 5 4 4 3 2 1 1 2 3 4 4 5 6 7 8 9 9 9 7 5 4 3 5 6 6 7 7 7 6 5 5 5 6 7 8 9 10 11 12 12 12 11 11 11 13 14 13 13 13 14 14 14 14 15 16 17 18 20 21 22 22
13 12 11 10 10 9 8 8 7 7 6 6 6 5 4 4 5 5 5 5 5 5 5 5 4 4 4 3 3 3 3 4 5 5 5 4 5 7 8 9 10 10 10 10 9 7 7 7 7 9 10 10 11 12 12 12 12 11 12 13 14 15 15 15 15 14 14 14 14 16 16 16 16 17 17 17 16 15 15 16 17 19 21 22 22
13 12 10 9 8 8 7 7 7 6 5 5 4 4 4 3 3 4 4 4 3 3 3 3 3 3 3 2 2 2 3 4 4 5 5 4 5 6 7 8 10 11 12 13 13 11 11 10 9 9 11 12 13 14 14 14 14 14 14 15 16 17 18 18 18 18 18 18 18 18 19 19 19 20 21 20 18 16 15 14 14 16 18 19 21
11 11 9 7 7 6 6 5 5 4 4 3 2 2 2 2 2 2 3 2 2 2 1 0 0 0 0 0 1 0 1 2 3 4 5 5 6 6 6 7 9 10 12 14 16 14 13 13 12 10 11 12 12 13 14 13 12 12 12 12 14 15 16 17 17 18 20 21 21 21 21 21 21 20 20 19 18 17 16 16 15 15 16 17 18
10 10 8 7 6 6 5 4 4 4 4 4 3 3 3 3 3 3 4 4 3 2 3 3 3 3 3 3 4 4 3 1 2 3 4 4 5 6 7 8 9 10 12 14 17 18 15 14 15 14 13 13 12 12 13 12 11 11 10 10 10 10 11 11 11 12 13 15 17 19 20 20 20 20 21 21 20 20 19 18 18 18 18 17 18
10 9 8 7 6 5 4 3 3 4 4 4 3 3 4 4 5 6 7 7 6 6 6 5 5 5 6 6 6 6 5 5 4 3 4 4 4 5 6 8 9 11 13 15 17 20 19 18 17 16 15 15 14 14 14 13 12 11 10 9 9 8 8 8 8 7 7 8 9 11 13 15 17 18 20 21 22 22 22 20 20 20 20 19 18
11 10 9 8 8 7 5 5 4 4 2 0 1 3 4 4 5 6 8 9 9 9 9 9 8 8 8 8 8 8 7 7 6 5 6 6 6 6 6 8 9 10 13 15 16 19 21 21 19 18 18 17 16 16 15 15 14 13 12 10 9 8 7 7 7 6 6 7 8 8 9 11 12 14 16 17 18 20 21 21 21 21 20 20 20
14 12 11 11 10 9 8 7 6 5 3 3 5 7 7 7 7 8 9 10 10 11 10 11 11 11 11 11 11 11 9 8 7 7 6 7 7 7 7 8 9 11 12 14 16 17 20 21 21 20 19 18 17 16 16 16 15 14 13 11 10 9 8 8 8 8 8 9 9 9 9 10 12 13 14 15 16 17 19 20 20 20 20 20 20
16 15 15 14 13 12 10 9 8 7 6 7 10 13 13 13 12 11 11 12 13 13 12 12 13 13 13 13 13 14 12 10 9 9 8 8 7 7 8 8 9 12 13 14 15 16 18 20 20 19 18 18 17 16 16 17 17 17 15 13 12 13 12 11 9 9 10 11 12 12 12 12 13 15 16 16 17 17 18 18 18 18 17 17 17
20 18 17 16 15 13 11 11 10 10 11 13 15 16 16 17 17 15 14 15 16 17 16 15 15 14 14 14 15 15 14 12 11 11 9 9 8 8 9 10 11 12 14 14 15 16 17 19 20 20 19 18 17 16 16 17 19 20 20 18 15 15 16 15 12 11 12 13 14 15 16 17 18 19 19 18 18 19 19 19 19 18 18 17 17
24 22 20 18 16 14 13 13 14 15 15 16 18 19 18 17 17 17 16 17 19 20 20 19 18 17 16 16 17 17 16 14 14 12 10 10 9 9 10 10 12 13 14 15 16 17 18 18 18 18 18 18 18 18 17 17 18 20 21 22 21 18 18 18 17 16 17 17 18 19 20 21 22 20 18 17 18 18 18 20 20 20 21 20 20
24 20 18 16 14 14 15 15 17 17 16 18 21 22 20 17 17 17 18 20 22 23 24 23 21 20 19 19 19 18 17 16 15 14 12 11 11 11 11 12 13 14 15 16 17 17 17 16 16 17 17 18 18 18 18 18 19 19 20 22 24 24 23 22 21 21 22 22 22 22 22 21 20 18 16 15 15 16 16 17 18 20 21 21 21
17 15 15 14 13 14 16 17 18 18 19 21 22 20 18 17 17 19 20 23 24 24 26 27 25 23 22 22 21 20 19 18 17 16 14 13 12 12 12 13 15 16 16 17 17 16 15 15 15 16 17 17 18 19 19 19 20 20 21 22 24 26 27 26 24 23 24 25 25 24 23 21 20 19 17 16 16 17 17 16 16 17 19 20 19
14 14 15 14 14 16 17 18 19 20 21 22 21 19 19 19 20 22 24 26 26 26 27 29 29 27 25 25 24 23 21 20 19 18 17 16 15 14 14 15 16 18 18 17 16 15 15 16 16 17 18 18 18 19 20 20 20 21 22 23 25 26 27 29 27 23 23 25 27 27 24 21 22 23 22 20 20 21 23 21 20 18 17 17 17
14 12 11 12 13 15 16 16 17 17 18 19 19 20 21 21 21 22 24 27 28 29 29 30 32 31 28 28 27 26 25 23 21 20 19 17 15 15 16 17 19 19 19 17 17 17 17 18 19 19 20 21 21 21 22 23 23 23 23 23 25 26 27 28 29 27 24 25 28 31 29 26 26 28 28 27 26 27 28 27 26 23 20 18 17
13 12 11 11 12 13 13 14 14 14 15 17 18 20 20 21 21 22 24 25 28 29 30 30 32 32 30 30 30 29 28 25 22 21 19 17 16 17 19 20 21 22 21 19 18 19 20 21 22 23 23 24 24 24 25 26 26 27 27 26 27 28 28 28 30 30 28 26 29 33 33 30 29 30 30 30 29 28 29 30 29 28 26 23 21
12 11 11 11 12 12 12 13 15 16 17 17 18 20 21 21 22 23 23 24 26 28 30 31 33 32 32 32 32 32 31 26 22 22 20 18 18 20 21 22 23 23 22 21 20 21 22 24 25 26 26 27 28 28 27 28 29 30 31 31 31 32 33 33 33 33 31 28 29 32 34 31 29 30 30 29 28 26 27 30 31 30 29 27 26
10 9 10 11 11 12 12 13 15 16 17 18 19 20 22 24 25 24 24 24 25 26 28 31 33 33 33 33 33 33 30 25 22 22 20 18 19 20 22 23 24 23 22 21 21 22 24 25 27 28 29 30 31 31 31 30 31 31 32 34 35 35 37 37 37 37 35 32 29 30 33 33 31 31 30 28 27 26 26 29 31 31 30 28 26
10 10 10 11 11 12 12 14 15 16 16 17 18 19 21 23 24 24 22 22 23 22 25 30 33 32 31 31 31 30 26 22 22 22 20 19 20 21 23 24 23 22 21 21 22 23 25 27 29 31 31 32 32 33 33 33 33 33 34 35 36 37 39 40 40 39 37 35 31 28 31 33 32 33 32 29 27 27 26 28 30 29 29 28 25
13 13 12 11 12 12 13 14 15 16 16 15 15 17 18 19 19 18 17 17 17 18 22 28 29 28 27 29 31 30 25 22 22 21 20 21 22 23 23 23 22 21 21 22 24 26 27 29 31 32 33 34 34 35 35 35 36 36 37 38 39 40 41 43 44 42 39 37 34 30 32 35 35 33 30 26 25 26 25 25 26 26 26 25 24
11 10 10 9 9 10 12 13 14 14 15 15 15 15 15 16 16 16 15 13 13 15 19 23 25 26 27 30 31 28 23 21 20 20 21 22 23 23 23 22 22 21 21 23 25 27 29 31 32 33 34 34 35 36 37 37 39 40 41 43 44 43 44 45 46 45 42 39 37 35 35 36 32 28 24 22 21 20 19 20 21 21 22 22 22
9 8 8 8 10 12 12 13 14 15 16 17 16 14 13 14 14 14 13 12 12 14 16 19 22 24 25 26 25 22 21 22 23 23 24 23 23 23 23 23 23 22 23 25 27 28 30 32 32 33 34 35 36 38 39 40 40 40 41 42 41 41 41 42 42 43 42 40 36 32 30 29 26 23 24 25 24 19 15 15 17 17 16 16 17
9 10 10 10 11 13 14 15 16 17 18 18 18 16 15 14 13 12 12 12 12 14 16 19 22 24 24 23 22 22 23 25 25 25 24 24 23 23 24 24 24 25 26 28 30 31 32 34 35 36 37 38 38 38 37 37 35 33 32 32 32 32 34 35 34 35 37 36 29 24 24 26 26 26 25 25 26 24 17 13 15 16 16 14 14
Wind_Direction
194 187 199 202 191 192 182 174 180 178 178 179 170 165 164 163 161 160 161 160 156 151 151 157 158 154 165 179 180 178 191 199 187 183 175 168 158 118 89 79 82 85 82 84 93 108 144 181 199 212 222 222 224 224 228 241 247 247 247 241 232 225 216 209 204 197 188 171 148 122 97 81 75 72 71 70 69 68 67 66 63 59 54 51 51
186 187 204 205 204 202 188 179 181 181 183 185 178 172 170 170 171 168 168 166 158 159 166 172 172 171 180 183 182 182 178 175 194 197 177 162 156 129 100 95 96 97 95 92 92 93 108 153 188 208 221 225 230 232 231 240 252 256 257 257 254 251 238 228 221 212 210 205 194 172 122 85 73 67 66 66 65 65 66 66 65 62 59 53 49
187 190 206 201 204 206 195 186 182 183 185 193 191 183 177 175 174 168 169 170 165 173 184 188 187 186 185 183 188 197 192 184 188 191 176 163 162 146 117 114 114 112 105 98 95 91 91 105 159 200 210 213 219 229 234 236 245 255 258 258 259 263 259 252 245 233 227 224 226 227 215 3 51 53 56 58 57 60 61 63 65 64 63 59 54
190 191 204 199 202 201 191 181 178 184 189 199 197 191 186 180 175 167 167 172 178 187 193 196 197 196 193 192 197 203 205 208 207 195 182 172 169 159 140 132 127 125 113 92 79 68 69 84 144 202 209 204 199 212 227 231 239 249 255 255 253 254 259 263 265 260 252 245 243 249 255 271 309 351 22 37 41 48 52 54 60 62 65 64 60
195 190 200 207 205 194 181 172 174 183 190 198 197 194 195 188 184 179 174 176 182 190 196 199 203 204 202 202 204 205 206 215 224 218 203 190 176 162 162 172 163 149 134 107 76 53 49 55 158 221 216 204 192 201 215 221 233 243 248 250 247 245 245 248 257 264 267 265 262 263 267 273 283 292 316 347 8 20 34 45 50 55 60 64 63
210 202 193 205 209 194 182 176 178 186 188 194 198 199 203 200 197 195 190 186 186 191 197 200 206 209 207 208 209 207 207 215 226 230 220 205 189 177 182 189 183 171 158 124 46 28 27 35 54 1 247 211 196 208 217 211 224 234 237 240 240 234 231 232 239 249 256 261 264 264 265 267 272 275 283 294 303 323 347 22 35 42 50 58 63
209 208 191 199 211 211 208 203 198 196 192 197 202 204 209 210 206 206 203 198 197 201 204 208 211 208 206 211 210 206 207 213 220 228 229 220 211 201 195 190 189 191 204 247 290 321 318 305 306 122 117 120 216 235 238 232 226 225 225 230 230 219 207 210 219 232 242 247 253 258 262 265 269 271 271 273 274 278 287 314 3 27 38 48 56
198 194 189 199 214 224 223 217 214 211 204 207 211 213 218 219 213 211 211 208 211 215 218 222 220 214 210 210 210 211 213 214 214 218 221 223 225 221 213 207 204 206 216 231 245 266 277 274 272 240 187 161 163 230 244 247 247 240 231 224 225 218 197 185 188 206 224 234 241 247 255 261 264 268 268 266 264 262 263 262 268 332 23 37 48
190 181 182 194 212 225 226 224 227 229 222 216 219 225 230 230 222 217 216 217 221 226 230 226 220 220 214 206 209 214 216 216 217 220 222 225 227 225 223 221 219 220 223 226 224 231 245 255 266 260 245 231 198 190 207 240 247 246 242 229 223 215 196 185 175 182 202 218 233 243 253 258 260 262 263 262 261 258 256 250 243 238 235 32 46
188 178 177 189 207 219 222 225 230 236 234 226 225 231 237 238 232 228 224 222 227 236 236 227 222 228 226 221 222 219 215 217 220 223 226 230 234 232 229 228 228 229 233 233 226 219 223 234 252 257 249 235 211 204 207 219 226 228 230 225 219 211 201 197 191 198 211 221 234 246 254 258 258 259 261 261 262 260 257 251 245 236 224 213 131
180 179 179 191 209 220 224 228 231 234 233 231 234 237 240 241 236 234 231 230 236 237 229 225 227 229 228 227 226 220 218 221 223 225 227 232 238 239 240 239 237 235 237 236 232 226 221 221 234 244 241 234 224 221 221 209 203 206 213 218 215 206 202 206 213 224 234 242 243 243 250 255 258 260 262 263 263 262 259 257 250 236 227 215 198
172 180 193 207 220 228 231 234 236 233 228 232 239 241 242 243 237 234 234 239 238 224 211 213 216 213 216 224 222 224 232 238 238 237 238 241 242 243 245 246 244 242 238 234 233 234 228 220 223 229 230 232 232 229 226 213 207 211 216 225 225 215 212 213 216 223 236 246 245 242 244 251 257 261 261 260 260 261 259 259 254 239 230 218 208
154 165 193 211 217 218 216 222 230 230 227 225 228 234 239 240 236 233 236 241 238 223 208 205 205 205 214 232 242 248 257 260 261 259 258 257 254 251 247 245 244 246 243 236 233 234 232 226 223 224 224 228 232 231 229 219 213 211 210 223 228 226 235 236 223 226 236 244 247 247 246 250 254 251 244 241 243 250 251 251 250 239 229 221 212
157 167 188 197 202 203 202 210 216 220 224 220 219 225 233 238 237 235 235 234 232 225 212 204 207 210 219 238 256 265 268 271 278 276 267 267 268 259 249 241 236 239 245 244 239 235 235 235 231 231 230 228 230 230 230 223 215 212 213 219 217 221 234 242 243 242 245 248 246 239 231 230 224 200 180 190 213 227 230 237 243 239 232 225 218
186 198 209 205 201 201 201 205 209 215 221 219 219 222 228 235 238 238 236 229 225 225 215 209 213 215 231 249 253 262 268 272 281 276 267 287 300 281 256 243 235 231 237 246 247 242 239 241 242 246 245 238 233 229 227 226 219 216 221 225 222 223 230 236 243 246 250 251 237 226 213 199 190 182 186 200 216 224 223 228 235 236 235 229 224
192 196 206 206 197 189 187 187 191 194 195 203 210 217 223 228 231 232 233 231 230 228 218 215 220 223 238 250 248 258 267 269 272 266 273 300 327 327 294 257 241 235 236 245 255 255 250 247 245 248 253 254 248 237 230 228 227 226 227 227 227 228 230 235 242 244 244 241 237 238 232 203 194 196 211 229 240 249 248 246 244 242 239 234 231
168 164 174 183 177 168 166 170 174 171 168 176 181 189 202 210 217 221 227 232 232 230 223 219 223 225 230 239 244 254 263 274 282 279 278 294 319 333 335 302 258 245 244 248 257 265 268 263 250 242 254 264 262 255 247 237 236 239 238 234 231 230 229 230 236 241 242 240 238 242 246 240 226 219 225 238 248 256 259 261 260 256 249 242 238
178 175 162 158 162 156 154 162 171 167 159 158 157 160 171 182 195 200 208 218 221 225 227 223 221 220 221 224 226 241 265 282 293 297 292 292 303 316 330 334 302 266 257 255 258 264 271 272 267 262 273 275 264 260 259 251 245 245 244 244 244 241 238 234 235 238 241 241 237 237 242 248 249 241 237 243 252 259 261 264 264 263 261 254 248
192 197 185 169 158 149 151 149 154 157 154 156 153 150 161 169 177 182 190 206 213 218 224 225 223 222 225 228 230 244 266 279 286 293 292 291 296 297 299 310 315 303 288 279 273 269 271 277 279 275 272 273 264 253 253 250 246 245 244 244 247 248 249 246 243 242 242 244 243 240 239 243 247 245 241 246 257 265 268 266 264 264 264 261 256
178 186 184 183 176 172 176 135 130 146 153 157 153 149 162 162 158 164 178 198 209 218 222 225 227 227 229 233 236 246 260 270 272 278 286 293 300 290 275 279 290 297 293 287 285 284 284 285 286 278 260 255 259 258 254 250 248 250 249 246 244 246 253 255 252 248 242 242 246 244 241 241 244 243 244 252 260 266 269 267 264 264 264 263 260
165 166 164 169 177 188 190 160 137 139 146 150 140 133 145 147 138 136 150 176 196 213 219 218 222 225 220 220 226 240 252 255 249 255 274 302 318 316 300 285 278 279 283 281 280 288 295 292 292 286 263 252 259 261 261 265 267 264 262 258 249 244 248 253 252 248 243 239 241 242 242 245 248 250 253 260 264 264 264 263 262 262 263 263 261
154 160 160 161 169 173 174 175 178 178 177 170 157 147 142 138 130 124 122 120 129 159 197 201 201 196 188 198 218 240 251 245 227 239 300 325 319 319 320 314 308 303 296 291 290 299 308 298 300 294 269 263 266 261 263 282 278 273 272 262 246 233 233 245 250 249 244 239 235 234 235 242 251 255 257 262 265 266 266 263 261 262 262 262 261
136 151 162 167 165 160 158 164 167 183 194 185 182 187 184 180 170 160 157 128 102 105 130 153 153 155 197 234 258 264 269 267 257 280 306 313 308 307 316 322 328 340 345 342 329 327 340 289 302 306 264 262 268 260 267 281 269 267 268 253 236 228 220 233 252 253 247 244 242 237 234 237 244 251 255 258 261 264 268 268 267 268 266 264 262
130 136 145 150 136 121 115 109 107 108 109 103 100 108 111 111 126 148 180 189 173 168 178 187 204 253 275 276 274 270 273 273 276 289 303 312 311 309 318 326 338 357 19 51 68 65 68 50 334 346 294 235 254 249 252 263 265 268 271 263 254 255 239 238 268 270 261 262 263 256 248 245 248 251 252 254 258 262 267 269 269 270 268 264 261
129 131 132 131 124 117 111 105 105 103 101 100 94 92 90 89 92 98 113 135 146 165 190 215 229 260 281 268 266 267 268 272 278 289 301 312 315 312 315 321 334 358 37 90 90 78 74 67 42 27 46 103 191 240 240 250 260 270 284 293 294 304 330 332 297 287 274 275 277 267 260 259 259 259 258 257 259 263 266 267 265 264 264 262 258
123 126 126 126 125 121 115 108 104 100 95 97 97 93 89 84 83 84 90 100 102 109 130 139 129 105 126 210 257 266 272 277 281 291 301 309 314 315 322 326 332 358 34 113 118 125 109 77 65 52 43 75 71 276 243 247 255 263 280 293 284 290 307 301 277 270 265 269 271 268 267 264 263 267 269 268 267 268 271 271 267 264 264 264 262
119 120 121 123 123 118 114 109 103 98 93 94 97 94 89 84 79 75 74 79 81 81 89 92 88 89 109 201 296 276 283 292 295 308 321 329 335 338 349 359 4 22 52 188 217 247 277 37 69 65 42 75 82 32 259 255 262 261 271 284 279 275 277 270 265 267 266 269 270 269 271 270 271 273 277 280 280 280 282 283 279 274 271 270 270
118 119 119 118 118 115 113 110 101 96 95 97 96 89 81 74 69 64 63 69 73 74 80 84 89 92 87 81 88 120 287 330 337 348 351 351 353 353 357 5 10 17 36 155 246 278 298 295 274 267 294 313 355 11 326 280 270 269 266 270 269 259 255 257 261 267 272 275 276 273 272 275 280 282 285 290 291 290 289 288 286 282 279 279 281
121 119 118 116 116 113 111 110 101 92 89 92 93 87 76 63 59 58 59 62 63 68 75 76 85 91 83 76 76 74 63 34 7 2 5 3 2 2 3 8 9 10 12 4 343 319 317 310 291 274 273 283 282 274 282 280 266 263 259 255 256 255 253 255 259 262 265 270 274 274 274 275 278 281 285 288 290 291 290 289 287 284 281 280 281
129 123 117 111 111 112 110 108 103 95 86 82 84 84 75 58 53 52 55 62 64 70 74 68 73 85 82 75 71 65 56 37 16 4 5 12 18 18 17 16 13 10 4 357 353 348 341 332 315 296 284 283 284 277 276 278 274 265 260 257 257 258 259 261 264 265 265 266 269 271 273 275 277 280 282 283 284 286 288 289 287 284 281 278 276
141 132 125 111 104 105 106 105 102 101 100 93 84 80 76 58 48 45 45 60 67 66 72 71 68 74 75 72 68 65 57 40 22 8 4 3 10 20 22 13 7 2 356 350 345 347 346 341 339 328 309 303 304 297 289 287 285 278 272 267 264 262 262 263 264 266 268 270 270 271 274 276 279 282 283 280 278 279 281 284 287 287 286 282 279
155 144 138 128 117 109 105 102 95 92 95 93 72 61 62 43 31 25 9 18 37 29 24 242 235 307 330 293 303 302 69 60 39 18 9 359 357 7 11 6 -0 352 348 344 339 342 349 342 338 340 327 318 318 312 303 298 296 294 291 287 280 275 271 269 268 269 270 271 271 271 272 274 277 280 280 277 275 277 279 279 281 284 286 287 286
173 161 155 149 142 131 121 116 107 100 95 83 61 34 17 2 348 332 323 321 315 299 279 263 259 269 273 267 264 263 268 314 13 15 9 355 349 358 2 356 352 345 342 341 336 337 346 345 337 337 334 327 326 324 315 307 303 300 300 304 301 294 289 285 284 284 281 279 278 276 274 274 275 275 276 277 277 278 279 278 279 280 281 284 287
191 180 173 171 170 165 161 163 148 124 107 90 68 36 11 356 342 329 319 312 303 291 282 274 266 270 275 273 269 266 273 291 309 334 345 340 333 343 353 349 346 342 337 335 332 330 335 340 339 336 334 331 329 330 325 318 312 303 295 298 302 304 308 309 307 309 306 298 291 287 284 282 281 280 280 279 279 278 276 276 278 280 281 282 283
203 202 198 195 193 194 198 207 203 186 171 171 333 331 325 317 313 311 310 308 304 298 293 290 282 278 279 279 276 271 272 284 293 304 318 322 321 327 336 336 335 334 330 328 325 324 325 330 334 333 331 330 328 327 324 318 314 309 301 297 294 294 304 311 310 312 316 315 311 304 298 291 287 285 282 280 279 276 274 274 275 277 280 281 282
209 208 208 206 206 210 219 229 232 234 246 277 299 300 297 295 293 293 295 296 296 296 293 292 289 287 287 283 280 278 276 280 286 289 298 304 304 307 313 320 324 324 322 320 319 318 318 321 325 327 326 325 324 323 319 313 311 311 307 305 303 296 293 294 300 306 310 312 310 305 300 292 287 285 284 283 282 278 275 274 276 277 279 281 281
216 213 211 211 216 224 235 247 254 261 269 281 295 296 292 290 289 287 286 285 286 288 286 285 285 287 289 285 281 280 278 280 285 285 286 290 290 292 301 309 315 316 315 314 313 313 314 314 317 320 321 319 319 319 316 311 309 309 307 306 308 305 301 297 299 304 306 305 302 297 291 287 286 285 285 285 285 284 281 277 274 273 274 276 278
210 213 217 221 227 234 246 259 265 273 282 289 294 294 290 289 286 280 278 279 281 282 281 280 279 279 283 282 277 276 278 279 283 284 284 286 288 287 292 300 304 305 306 307 309 310 311 311 312 315 316 316 315 316 314 310 309 309 308 306 306 304 303 302 302 301 300 299 298 294 290 291 292 290 287 285 285 286 285 281 277 274 272 271 271
206 205 210 220 232 243 256 270 278 286 290 289 291 288 281 278 276 273 273 276 276 277 278 278 275 273 274 274 271 270 273 275 277 281 282 280 281 281 283 288 294 298 301 304 306 307 308 309 310 311 312 314 314 314 311 308 305 303 302 303 303 302 299 298 300 301 299 294 290 288 287 290 291 290 287 286 286 288 289 285 280 276 273 269 266
208 206 210 219 233 249 265 279 283 284 280 279 284 283 274 267 267 271 275 276 271 269 273 275 274 271 270 270 268 267 270 274 275 279 280 279 281 280 280 286 291 296 300 303 305 306 305 306 308 308 309 310 312 311 308 305 303 300 299 300 300 299 297 295 297 300 298 294 290 289 289 289 285 280 278 279 280 284 289 289 282 274 269 266 263
215 233 241 238 236 244 260 272 272 269 268 272 279 277 268 265 267 268 270 272 268 264 267 270 270 269 267 266 266 266 268 271 273 275 276 279 281 280 283 293 298 299 300 303 304 304 304 307 309 309 308 308 311 311 309 310 311 309 304 300 298 296 295 293 291 292 292 291 288 286 288 290 285 278 274 274 276 280 282 285 284 277 269 265 262
235 249 248 242 236 241 254 262 263 263 264 267 271 268 264 266 269 268 268 269 267 264 263 264 265 264 263 263 264 264 265 266 268 271 274 278 281 283 290 299 303 302 304 305 305 303 306 311 316 317 315 313 314 315 314 314 312 308 304 303 302 300 299 297 293 290 289 289 286 282 281 282 280 277 275 274 277 282 282 279 278 276 271 266 261
231 225 223 231 237 246 256 260 262 263 261 259 260 261 263 265 267 269 269 268 266 264 263 262 260 258 257 259 261 260 261 262 264 267 271 275 280 288 297 303 305 304 304 306 306 307 312 317 321 323 322 319 317 317 317 316 311 307 305 305 306 306 306 305 301 298 297 296 294 289 285 284 283 281 278 276 276 280 283 279 274 272 270 268 266
216 219 228 240 246 253 259 260 260 257 253 252 253 255 259 262 264 266 267 267 266 265 264 262 256 251 253 257 258 257 257 258 262 266 268 273 285 296 301 302 301 300 301 303 305 308 315 319 320 322 322 321 318 317 318 316 313 310 308 307 309 309 308 307 304 301 301 302 301 297 292 290 291 290 285 281 279 281 282 278 274 272 270 268 269
223 232 237 240 243 249 254 257 258 256 254 255 256 257 260 261 262 263 264 266 267 265 264 261 254 249 251 254 254 253 252 252 257 264 267 275 288 295 296 295 293 295 298 301 304 308 313 315 314 315 317 317 317 317 317 315 313 312 311 309 310 309 308 307 305 303 304 305 305 301 296 294 296 297 293 288 286 286 282 277 275 274 274 273 273
232 234 234 237 243 251 256 258 260 260 261 263 264 265 266 266 266 265 264 266 267 267 265 260 255 253 254 254 253 252 252 253 258 262 267 277 285 288 289 289 289 292 296 300 304 306 306 306 306 308 311 312 313 313 313 312 311 311 311 309 308 307 306 305 304 304 305 307 307 305 300 297 298 298 296 293 292 290 286 280 277 276 276 278 278
217 220 227 236 246 254 261 264 265 267 269 271 273 274 274 273 272 271 270 270 271 270 263 257 255 255 252 249 245 243 246 255 261 263 268 275 280 282 284 285 286 290 294 298 300 299 298 300 302 305 308 309 309 309 309 309 308 307 306 305 304 303 303 302 301 301 302 302 304 303 298 296 297 298 297 297 294 291 289 286 283 281 279 279 280
223 225 231 241 250 256 261 266 270 274 277 281 285 286 285 284 282 279 277 277 276 271 262 255 252 249 243 240 240 240 244 253 257 258 263 269 274 277 279 279 281 283 288 293 294 293 294 297 299 301 302 304 305 305 305 305 304 303 301 299 299 299 298 297 297 298 299 299 300 297 293 293 297 300 303 303 298 294 293 291 289 286 281 278 280
227 234 244 255 263 269 273 275 278 281 286 293 298 300 298 296 295 292 291 292 288 278 265 255 247 240 233 235 241 247 249 248 247 252 260 267 273 276 275 274 275 278 284 288 288 289 290 291 292 294 296 298 299 299 299 298 298 298 297 295 296 296 294 293 294 295 296 296 295 294 293 294 298 301 303 304 301 298 298 297 295 292 285 279 279
221 234 249 260 270 278 282 284 285 286 291 298 301 303 306 307 306 303 299 298 293 279 264 251 241 234 229 231 239 245 245 243 247 255 263 268 273 274 271 270 272 277 281 281 280 281 282 283 284 286 288 290 292 292 292 292 292 292 291 291 292 292 291 291 292 293 294 294 295 295 293 292 293 292 293 296 296 293 292 297 298 295 286 278 276
231 237 245 253 263 272 277 281 284 286 290 295 297 297 301 307 310 306 295 285 278 269 257 244 236 232 232 238 245 246 244 247 254 259 263 266 270 269 267 268 271 275 277 277 277 279 281 282 283 285 288 289 290 291 291 291 291 291 291 290 291 291 290 289 290 292 293 294 296 296 290 287 288 289 291 295 295 292 288 288 294 295 289 280 274
Height
1541 1542 1544 1544 1544 1545 1545 1545 1546 1547 1547 1548 1548 1548 1548 1548 1548 1548 1548 1548 1548 1549 1550 1551 1552 1553 1553 1554 1554 1554 1555 1556 1557 1558 1558 1559 1559 1560 1560 1560 1560 1561 1561 1561 1561 1561 1561 1561 1562 1562 1562 1562 1563 1563 1563 1563 1563 1563 1563 1563 1563 1563 1563 1563 1563 1562 1562 1561 1561 1561 1561 1560 1560 1560 1559 1559 1559 1559 1559 1559 1558 1558 1557 1557 1557
1540 1540 1542 1543 1543 1544 1545 1545 1546 1547 1547 1548 1549 1549 1549 1549 1548 1548 1548 1548 1548 1549 1550 1551 1551 1552 1553 1553 1553 1554 1554 1555 1556 1557 1558 1558 1559 1559 1560 1560 1560 1561 1561 1562 1562 1561 1561 1561 1561 1561 1561 1562 1562 1562 1563 1563 1563 1563 1563 1564 1564 1563 1563 1563 1563 1562 1562 1562 1561 1561 1561 1561 1560 1560 1560 1559 1559 1559 1559 1559 1559 1559 1558 1558 1557
1539 1539 1541 1542 1543 1544 1544 1545 1546 1547 1547 1548 1549 1549 1549 1549 1549 1549 1548 1548 1548 1549 1549 1550 1551 1552 1553 1553 1553 1553 1554 1554 1555 1556 1557 1558 1558 1559 1559 1560 1560 1561 1561 1561 1561 1561 1561 1561 1561 1561 1561 1561 1561 1561 1562 1562 1563 1563 1563 1564 1564 1564 1563 1563 1563 1563 1563 1562 1562 1562 1561 1561 1561 1560 1560 1560 1559 1559 1559 1559 1559 1559 1559 1559 1558
1539 1539 1540 1541 1542 1543 1544 1545 1546 1547 1547 1549 1549 1549 1549 1549 1549 1548 1548 1547 1548 1549 1549 1550 1551 1552 1552 1553 1553 1553 1553 1554 1555 1556 1556 1557 1557 1558 1559 1560 1560 1560 1561 1561 1561 1561 1561 1561 1561 1561 1561 1561 1561 1561 1561 1562 1562 1562 1562 1563 1563 1563 1564 1564 1563 1563 1563 1563 1562 1562 1562 1561 1561 1561 1560 1560 1560 1560 1559 1559 1559 1559 1559 1559 1559
1539 1538 1539 1540 1541 1542 1543 1544 1545 1546 1547 1549 1549 1549 1549 1549 1549 1548 1547 1547 1547 1548 1549 1550 1551 1551 1552 1553 1553 1553 1553 1553 1554 1555 1556 1556 1557 1557 1558 1559 1559 1560 1560 1560 1561 1561 1561 1561 1561 1561 1561 1561 1561 1560 1561 1561 1561 1561 1562 1562 1562 1563 1563 1563 1563 1563 1563 1563 1563 1562 1562 1562 1561 1561 1561 1560 1560 1560 1559 1559 1559 1559 1559 1559 1559
1539 1538 1539 1539 1540 1541 1542 1544 1545 1546 1547 1548 1549 1549 1549 1549 1548 1548 1547 1546 1547 1548 1549 1550 1551 1551 1552 1552 1552 1552 1553 1553 1554 1554 1555 1555 1556 1557 1557 1558 1559 1559 1560 1560 1560 1560 1561 1561 1561 1561 1561 1561 1561 1560 1560 1561 1561 1561 1561 1561 1561 1562 1562 1562 1563 1563 1563 1562 1562 1562 1562 1562 1561 1561 1561 1561 1560 1560 1560 1559 1559 1559 1559 1559 1559
1538 1538 1538 1538 1540 1541 1542 1543 1544 1545 1546 1547 1549 1549 1549 1548 1547 1547 1546 1546 1547 1548 1550 1551 1551 1551 1551 1552 1552 1552 1552 1553 1553 1554 1554 1555 1555 1556 1557 1557 1558 1559 1559 1559 1560 1560 1560 1560 1561 1560 1560 1560 1560 1560 1560 1560 1560 1560 1560 1560 1560 1561 1561 1561 1562 1562 1562 1562 1562 1562 1561 1561 1561 1561 1561 1561 1560 1560 1560 1560 1560 1559 1559 1559 1559
1535 1535 1535 1537 1539 1541 1542 1543 1545 1545 1546 1546 1547 1548 1548 1547 1546 1546 1545 1545 1546 1547 1549 1550 1551 1551 1551 1551 1551 1551 1552 1552 1553 1553 1553 1554 1555 1556 1556 1557 1557 1558 1558 1559 1559 1559 1559 1560 1560 1560 1560 1560 1560 1560 1560 1560 1560 1560 1560 1560 1560 1560 1560 1560 1561 1561 1561 1561 1561 1561 1561 1561 1561 1561 1560 1560 1560 1560 1560 1560 1560 1560 1560 1559 1559
1533 1532 1533 1536 1539 1540 1542 1543 1545 1545 1545 1545 1546 1546 1547 1546 1546 1545 1545 1545 1546 1547 1548 1549 1550 1550 1551 1551 1551 1551 1551 1552 1552 1552 1553 1553 1554 1555 1555 1556 1556 1557 1557 1557 1558 1558 1559 1559 1559 1559 1559 1559 1560 1560 1560 1560 1560 1560 1560 1560 1559 1559 1559 1559 1560 1560 1560 1560 1560 1560 1560 1560 1560 1560 1560 1560 1560 1560 1559 1559 1559 1559 1560 1560 1560
1532 1532 1533 1536 1539 1541 1542 1543 1544 1544 1544 1544 1544 1544 1545 1545 1545 1544 1545 1545 1546 1547 1548 1549 1549 1550 1551 1551 1551 1551 1551 1551 1551 1552 1552 1553 1553 1554 1554 1555 1555 1556 1556 1557 1557 1557 1557 1558 1558 1558 1559 1559 1559 1559 1559 1559 1559 1559 1559 1559 1559 1559 1559 1559 1559 1559 1559 1559 1559 1559 1559 1559 1559 1559 1559 1559 1559 1559 1559 1559 1559 1559 1559 1560 1560
1532 1533 1535 1537 1539 1541 1541 1542 1543 1543 1543 1543 1543 1543 1543 1543 1543 1544 1544 1545 1546 1547 1548 1549 1549 1550 1550 1550 1550 1550 1551 1551 1551 1551 1552 1552 1553 1553 1553 1554 1554 1555 1555 1555 1556 1556 1556 1556 1557 1557 1557 1558 1558 1558 1558 1558 1559 1559 1559 1559 1559 1559 1559 1558 1558 1558 1558 1559 1559 1559 1559 1559 1559 1559 1558 1559 1558 1558 1558 1558 1559 1559 1559 1559 1559
1533 1534 1536 1538 1539 1540 1540 1540 1540 1540 1541 1542 1542 1542 1542 1542 1542 1543 1543 1544 1545 1547 1547 1548 1549 1549 1549 1549 1549 1550 1550 1551 1551 1551 1551 1552 1552 1553 1553 1553 1553 1553 1553 1554 1555 1555 1555 1555 1555 1556 1556 1556 1557 1557 1557 1557 1558 1558 1558 1559 1559 1559 1559 1558 1558 1558 1558 1558 1558 1558 1558 1558 1558 1558 1558 1558 1558 1558 1558 1558 1558 1558 1558 1559 1559
1534 1536 1537 1538 1538 1538 1539 1539 1539 1539 1540 1540 1541 1541 1541 1541 1542 1542 1543 1544 1545 1546 1547 1548 1548 1548 1548 1549 1549 1550 1550 1550 1550 1550 1551 1551 1551 1552 1552 1552 1552 1551 1551 1552 1553 1553 1554 1553 1553 1554 1554 1555 1555 1556 1556 1556 1556 1557 1557 1558 1558 1559 1559 1558 1557 1557 1557 1557 1557 1557 1558 1557 1557 1557 1557 1557 1557 1557 1557 1557 1557 1557 1557 1558 1558
1536 1537 1538 1537 1537 1538 1538 1538 1538 1538 1539 1539 1540 1540 1540 1540 1540 1541 1542 1543 1544 1545 1546 1547 1547 1548 1548 1548 1549 1549 1549 1549 1549 1549 1550 1550 1550 1551 1551 1551 1551 1550 1550 1551 1551 1552 1552 1552 1551 1552 1552 1553 1554 1555 1555 1555 1555 1556 1556 1556 1557 1557 1558 1558 1557 1557 1557 1557 1557 1557 1557 1557 1557 1557 1557 1557 1557 1556 1556 1556 1556 1556 1557 1557 1558
1537 1537 1537 1537 1537 1537 1537 1538 1538 1538 1538 1538 1538 1539 1539 1539 1539 1540 1541 1542 1544 1544 1545 1546 1546 1547 1548 1548 1548 1548 1548 1548 1548 1548 1549 1549 1549 1549 1549 1549 1550 1550 1550 1549 1550 1550 1550 1550 1551 1551 1551 1551 1552 1553 1553 1554 1555 1555 1555 1555 1555 1556 1556 1557 1557 1556 1556 1556 1556 1556 1556 1556 1556 1556 1556 1556 1556 1556 1556 1556 1556 1556 1556 1556 1557
1536 1536 1536 1537 1537 1537 1537 1537 1537 1537 1537 1537 1537 1538 1538 1538 1539 1540 1541 1542 1543 1544 1544 1545 1546 1547 1548 1547 1547 1547 1547 1548 1548 1548 1548 1549 1549 1549 1548 1548 1548 1549 1549 1549 1549 1549 1548 1549 1550 1550 1551 1551 1551 1550 1550 1552 1554 1554 1554 1554 1554 1554 1555 1555 1555 1555 1555 1556 1556 1556 1556 1556 1555 1555 1555 1555 1555 1555 1555 1555 1555 1555 1555 1555 1556
1536 1536 1536 1536 1536 1537 1537 1536 1536 1536 1536 1536 1536 1537 1537 1537 1538 1539 1540 1542 1542 1543 1543 1544 1546 1546 1547 1547 1547 1547 1547 1547 1547 1548 1548 1548 1548 1548 1548 1548 1548 1548 1549 1549 1548 1548 1548 1548 1548 1549 1550 1550 1550 1550 1549 1549 1551 1552 1552 1552 1552 1553 1553 1554 1554 1554 1554 1554 1554 1555 1555 1555 1555 1555 1555 1555 1555 1555 1555 1555 1554 1554 1555 1555 1555
1535 1535 1536 1536 1536 1536 1536 1536 1536 1536 1536 1536 1536 1536 1537 1537 1538 1539 1540 1541 1542 1542 1543 1544 1545 1545 1546 1547 1547 1547 1547 1547 1547 1548 1548 1548 1548 1548 1548 1548 1548 1548 1548 1548 1548 1547 1547 1547 1548 1548 1548 1548 1549 1549 1549 1548 1549 1549 1550 1550 1551 1551 1552 1552 1552 1552 1553 1552 1553 1553 1553 1554 1554 1554 1554 1554 1553 1554 1554 1554 1554 1554 1554 1554 1554
1534 1535 1535 1535 1535 1536 1536 1536 1536 1536 1536 1536 1536 1536 1537 1537 1538 1539 1540 1541 1541 1542 1543 1544 1545 1545 1546 1547 1547 1547 1547 1547 1547 1547 1547 1547 1547 1548 1547 1547 1547 1547 1547 1546 1546 1546 1546 1546 1547 1547 1547 1547 1547 1546 1546 1545 1545 1545 1546 1547 1548 1549 1550 1550 1550 1551 1551 1551 1551 1552 1552 1552 1553 1553 1553 1552 1552 1552 1552 1553 1553 1553 1553 1553 1554
1534 1534 1535 1535 1536 1536 1536 1536 1536 1537 1537 1537 1537 1537 1537 1538 1538 1539 1540 1541 1541 1542 1543 1544 1544 1545 1546 1546 1547 1547 1547 1547 1547 1547 1547 1547 1547 1547 1546 1546 1546 1546 1545 1545 1545 1545 1545 1545 1545 1546 1546 1546 1545 1544 1544 1543 1543 1543 1543 1543 1545 1546 1547 1548 1548 1549 1549 1549 1550 1550 1550 1550 1551 1551 1551 1551 1551 1551 1551 1551 1551 1552 1552 1552 1552
1534 1535 1535 1536 1536 1536 1537 1537 1537 1537 1537 1537 1537 1538 1538 1539 1539 1540 1541 1541 1542 1542 1543 1544 1544 1545 1546 1546 1547 1547 1548 1548 1548 1548 1548 1547 1547 1546 1546 1545 1545 1545 1545 1544 1544 1544 1544 1544 1544 1544 1545 1544 1543 1543 1543 1543 1543 1543 1542 1542 1542 1543 1544 1546 1546 1546 1547 1547 1548 1548 1548 1549 1548 1548 1549 1549 1549 1550 1550 1550 1550 1550 1551 1551 1551
1534 1535 1536 1536 1537 1537 1537 1538 1538 1538 1538 1538 1538 1539 1539 1540 1540 1541 1542 1542 1543 1543 1543 1544 1544 1545 1546 1547 1547 1548 1548 1548 1548 1548 1548 1548 1547 1546 1546 1545 1544 1544 1544 1544 1544 1544 1543 1543 1542 1542 1542 1542 1542 1542 1542 1542 1542 1541 1541 1541 1541 1540 1540 1542 1543 1544 1544 1545 1545 1545 1546 1547 1547 1546 1547 1547 1547 1548 1548 1548 1548 1549 1549 1550 1550
1535 1535 1536 1537 1537 1538 1538 1538 1538 1538 1539 1539 1539 1540 1540 1541 1541 1542 1542 1543 1544 1544 1544 1545 1545 1546 1547 1547 1547 1548 1548 1548 1548 1548 1548 1548 1547 1547 1546 1545 1544 1544 1543 1543 1543 1543 1542 1541 1541 1541 1541 1541 1541 1541 1541 1541 1540 1540 1539 1539 1539 1537 1536 1538 1540 1541 1542 1542 1542 1543 1544 1545 1545 1544 1544 1545 1545 1546 1546 1546 1547 1547 1548 1548 1548
1535 1536 1536 1537 1537 1538 1538 1538 1539 1539 1540 1540 1540 1540 1541 1541 1541 1542 1543 1543 1544 1545 1545 1546 1546 1547 1547 1547 1547 1547 1548 1548 1548 1548 1548 1548 1547 1546 1545 1544 1544 1544 1544 1544 1543 1542 1541 1541 1541 1541 1540 1540 1541 1541 1541 1541 1540 1539 1538 1538 1538 1536 1534 1534 1537 1539 1540 1541 1541 1543 1543 1543 1543 1542 1542 1543 1543 1544 1544 1545 1545 1545 1546 1545 1545
1536 1536 1536 1537 1538 1538 1538 1539 1539 1540 1540 1541 1541 1541 1542 1542 1542 1543 1543 1544 1545 1545 1545 1546 1546 1547 1547 1547 1547 1547 1548 1548 1548 1548 1547 1547 1546 1546 1545 1544 1544 1543 1544 1543 1543 1542 1542 1541 1541 1541 1540 1540 1540 1540 1540 1540 1540 1539 1538 1537 1538 1538 1535 1534 1536 1538 1538 1539 1540 1541 1541 1541 1541 1540 1540 1541 1541 1542 1542 1543 1543 1543 1543 1543 1543
1536 1536 1537 1538 1538 1538 1539 1539 1539 1540 1541 1541 1542 1542 1543 1543 1543 1544 1544 1545 1545 1545 1546 1546 1546 1547 1547 1547 1547 1548 1548 1548 1548 1548 1547 1547 1546 1545 1545 1544 1544 1543 1543 1543 1543 1542 1542 1541 1541 1541 1541 1540 1539 1540 1539 1539 1539 1538 1538 1537 1537 1538 1537 1536 1537 1537 1537 1538 1538 1539 1539 1539 1539 1539 1538 1539 1539 1540 1539 1540 1540 1540 1540 1540 1540
1537 1537 1537 1538 1538 1539 1539 1539 1539 1540 1541 1542 1542 1543 1543 1544 1544 1545 1545 1545 1545 1546 1546 1546 1547 1547 1547 1548 1548 1548 1548 1548 1548 1548 1548 1547 1546 1546 1545 1544 1544 1543 1543 1543 1542 1542 1542 1542 1542 1542 1541 1540 1540 1539 1539 1538 1538 1538 1538 1537 1537 1537 1537 1537 1537 1537 1537 1537 1537 1537 1537 1537 1538 1538 1538 1537 1538 1538 1538 1537 1537 1537 1537 1538 1539
1537 1537 1538 1538 1539 1539 1539 1539 1540 1540 1541 1542 1542 1543 1544 1544 1545 1545 1546 1546 1546 1546 1546 1547 1547 1548 1548 1548 1549 1549 1549 1549 1549 1549 1548 1548 1547 1546 1545 1545 1544 1543 1543 1543 1542 1542 1542 1542 1542 1542 1541 1541 1540 1540 1539 1538 1538 1538 1537 1537 1537 1537 1537 1537 1537 1537 1537 1536 1536 1537 1537 1536 1536 1536 1536 1536 1536 1536 1536 1536 1535 1535 1535 1536 1537
1536 1537 1538 1539 1539 1540 1540 1540 1540 1541 1541 1542 1543 1543 1544 1545 1545 1546 1546 1546 1547 1547 1547 1547 1548 1548 1549 1549 1549 1549 1549 1549 1549 1549 1548 1548 1547 1546 1546 1545 1544 1544 1543 1543 1543 1542 1542 1542 1541 1541 1541 1541 1540 1540 1539 1539 1538 1538 1537 1537 1537 1536 1536 1536 1536 1536 1536 1536 1536 1536 1535 1535 1535 1535 1535 1535 1535 1535 1535 1535 1534 1534 1534 1535 1535
1535 1536 1538 1538 1539 1540 1540 1541 1541 1541 1542 1542 1543 1544 1544 1545 1546 1546 1547 1547 1548 1548 1548 1548 1549 1549 1549 1550 1550 1550 1550 1550 1549 1549 1549 1548 1547 1546 1546 1545 1545 1544 1544 1543 1543 1542 1542 1542 1541 1540 1540 1540 1539 1539 1538 1538 1537 1537 1536 1536 1536 1535 1535 1535 1534 1534 1534 1534 1534 1534 1534 1534 1533 1533 1533 1533 1533 1533 1533 1533 1533 1533 1533 1533 1534
1534 1535 1536 1537 1538 1539 1540 1541 1541 1542 1542 1542 1543 1544 1545 1546 1546 1547 1548 1548 1549 1549 1549 1549 1550 1550 1550 1550 1550 1550 1550 1550 1550 1550 1549 1549 1548 1547 1546 1546 1545 1545 1545 1544 1543 1542 1542 1541 1541 1540 1539 1539 1538 1537 1537 1536 1535 1535 1534 1534 1534 1533 1533 1533 1533 1532 1532 1532 1532 1532 1532 1532 1531 1531 1531 1531 1531 1531 1531 1531 1531 1531 1531 1531 1531
1533 1534 1535 1536 1537 1538 1539 1540 1541 1541 1542 1543 1543 1544 1545 1546 1546 1547 1548 1549 1549 1550 1550 1550 1550 1550 1551 1551 1551 1551 1550 1550 1550 1550 1550 1549 1549 1548 1547 1547 1546 1546 1545 1545 1543 1543 1542 1542 1541 1540 1539 1538 1538 1537 1535 1535 1534 1533 1532 1532 1531 1531 1531 1531 1531 1530 1530 1530 1530 1530 1530 1530 1529 1529 1529 1529 1529 1529 1529 1529 1529 1529 1529 1529 1529
1532 1533 1534 1535 1536 1537 1538 1539 1540 1541 1542 1542 1543 1543 1544 1545 1546 1547 1548 1548 1549 1550 1550 1551 1551 1550 1551 1551 1551 1551 1551 1550 1550 1550 1550 1549 1549 1548 1547 1547 1547 1546 1545 1545 1544 1542 1542 1542 1541 1540 1539 1538 1537 1536 1535 1534 1533 1532 1531 1531 1530 1529 1529 1529 1529 1529 1528 1528 1528 1527 1527 1527 1527 1527 1526 1526 1526 1526 1526 1526 1526 1526 1526 1526 1526
1532 1532 1533 1534 1535 1536 1537 1538 1539 1540 1541 1541 1542 1543 1544 1545 1546 1546 1547 1548 1549 1549 1550 1550 1550 1550 1550 1550 1550 1550 1550 1550 1550 1550 1549 1549 1548 1548 1547 1547 1547 1546 1545 1545 1544 1542 1541 1540 1540 1539 1538 1537 1536 1535 1534 1532 1532 1531 1530 1529 1529 1528 1528 1527 1527 1527 1527 1526 1526 1525 1525 1525 1524 1524 1524 1524 1524 1523 1524 1524 1524 1524 1524 1524 1524
1531 1532 1532 1533 1534 1535 1536 1537 1538 1539 1540 1540 1541 1542 1543 1544 1544 1545 1546 1547 1548 1548 1549 1549 1550 1550 1550 1550 1550 1550 1550 1550 1549 1549 1549 1548 1548 1547 1547 1547 1546 1546 1545 1545 1544 1543 1541 1539 1539 1538 1537 1536 1535 1534 1533 1532 1531 1530 1529 1528 1528 1527 1526 1526 1525 1525 1525 1525 1524 1524 1523 1523 1522 1522 1522 1521 1521 1521 1521 1521 1521 1521 1521 1521 1521
1530 1531 1532 1533 1534 1534 1535 1536 1537 1537 1538 1539 1540 1541 1541 1542 1543 1544 1545 1546 1546 1547 1548 1548 1549 1549 1549 1549 1549 1549 1549 1549 1549 1549 1548 1548 1548 1547 1547 1547 1546 1546 1545 1545 1544 1543 1541 1539 1538 1537 1536 1535 1534 1533 1532 1531 1530 1529 1528 1527 1526 1525 1525 1524 1524 1523 1523 1523 1523 1522 1522 1521 1521 1520 1520 1519 1519 1518 1518 1518 1518 1518 1518 1519 1519
1530 1530 1531 1532 1533 1534 1535 1535 1536 1536 1536 1537 1538 1539 1539 1539 1540 1541 1542 1544 1545 1546 1546 1547 1547 1548 1548 1548 1548 1548 1549 1549 1549 1548 1548 1548 1547 1547 1547 1546 1546 1545 1545 1544 1543 1542 1541 1539 1538 1537 1536 1535 1533 1533 1531 1529 1528 1527 1527 1526 1525 1524 1523 1523 1523 1522 1522 1521 1521 1521 1520 1520 1519 1519 1518 1518 1517 1517 1516 1516 1516 1516 1516 1516 1516
1529 1530 1531 1532 1532 1533 1534 1534 1535 1535 1535 1536 1536 1536 1537 1537 1538 1539 1540 1541 1542 1544 1545 1545 1546 1546 1546 1547 1547 1547 1547 1547 1548 1548 1547 1547 1546 1546 1546 1545 1545 1545 1544 1543 1542 1541 1540 1539 1537 1536 1535 1534 1532 1532 1530 1528 1527 1525 1524 1523 1524 1523 1522 1521 1521 1521 1520 1520 1519 1519 1518 1517 1517 1516 1516 1516 1515 1515 1514 1513 1513 1513 1513 1513 1513
1529 1530 1532 1533 1533 1533 1533 1534 1534 1534 1534 1534 1534 1535 1535 1535 1535 1536 1537 1539 1540 1541 1542 1543 1544 1544 1544 1545 1545 1545 1545 1546 1546 1546 1546 1546 1545 1545 1545 1544 1544 1544 1543 1542 1541 1540 1538 1537 1536 1535 1534 1533 1531 1530 1529 1528 1526 1525 1523 1521 1520 1521 1520 1520 1520 1519 1518 1518 1517 1517 1517 1516 1515 1514 1514 1514 1514 1513 1512 1512 1511 1511 1511 1510 1510
1530 1531 1532 1533 1534 1534 1533 1533 1533 1533 1533 1534 1533 1534 1534 1534 1534 1535 1535 1537 1538 1539 1540 1541 1541 1542 1542 1543 1543 1543 1543 1543 1544 1544 1544 1544 1543 1543 1543 1543 1543 1542 1541 1540 1539 1538 1537 1536 1535 1534 1532 1531 1530 1529 1528 1526 1525 1524 1523 1521 1519 1518 1518 1517 1518 1517 1516 1515 1515 1514 1514 1514 1513 1512 1512 1511 1512 1511 1510 1510 1509 1509 1508 1508 1507
1529 1529 1530 1531 1532 1533 1532 1532 1532 1533 1533 1533 1533 1533 1533 1533 1533 1534 1534 1535 1535 1536 1537 1538 1539 1540 1540 1540 1541 1541 1541 1541 1541 1542 1542 1542 1541 1541 1541 1541 1541 1540 1539 1539 1537 1536 1536 1534 1533 1532 1531 1530 1529 1527 1526 1524 1523 1522 1521 1520 1518 1517 1515 1514 1515 1516 1514 1512 1512 1511 1512 1512 1511 1510 1509 1509 1509 1509 1508 1507 1507 1506 1506 1505 1505
1526 1526 1527 1528 1529 1530 1531 1531 1531 1532 1532 1532 1532 1532 1532 1532 1533 1533 1533 1533 1533 1534 1535 1536 1536 1537 1538 1538 1538 1539 1539 1539 1540 1540 1540 1540 1539 1539 1539 1539 1539 1538 1537 1537 1536 1534 1534 1533 1532 1530 1529 1528 1527 1526 1524 1523 1522 1521 1519 1518 1516 1515 1513 1511 1511 1512 1512 1510 1508 1507 1508 1510 1509 1507 1507 1507 1506 1506 1505 1504 1503 1503 1503 1503 1502
1524 1525 1526 1527 1527 1528 1529 1529 1530 1530 1530 1530 1530 1530 1530 1530 1531 1531 1531 1531 1531 1532 1532 1533 1534 1535 1536 1536 1536 1537 1537 1537 1538 1538 1538 1538 1537 1537 1537 1537 1536 1536 1535 1535 1534 1533 1532 1531 1530 1529 1527 1526 1525 1524 1523 1521 1520 1519 1518 1517 1515 1513 1511 1509 1507 1508 1509 1508 1506 1503 1504 1506 1506 1505 1504 1504 1504 1503 1502 1500 1500 1500 1500 1500 1500
1523 1524 1524 1525 1526 1526 1527 1527 1527 1527 1527 1527 1527 1527 1527 1528 1528 1528 1528 1529 1529 1529 1529 1530 1531 1533 1534 1534 1534 1534 1534 1535 1536 1536 1535 1535 1535 1535 1535 1534 1534 1533 1533 1533 1532 1531 1529 1528 1527 1526 1525 1524 1523 1522 1521 1519 1518 1517 1516 1515 1513 1511 1510 1508 1506 1504 1505 1506 1504 1500 1499 1501 1502 1501 1500 1500 1500 1500 1498 1497 1496 1496 1496 1497 1497
1521 1522 1523 1523 1523 1524 1524 1525 1525 1525 1525 1525 1525 1525 1525 1525 1526 1526 1526 1526 1526 1526 1527 1527 1528 1530 1530 1530 1531 1531 1532 1532 1533 1533 1533 1533 1533 1533 1532 1532 1531 1531 1531 1530 1529 1528 1527 1526 1525 1524 1523 1522 1520 1520 1519 1517 1515 1514 1513 1512 1511 1509 1507 1506 1503 1502 1502 1504 1502 1498 1495 1496 1498 1496 1496 1496 1496 1496 1494 1492 1492 1492 1492 1493 1493
1519 1520 1521 1521 1522 1522 1523 1523 1523 1523 1523 1523 1523 1523 1523 1523 1523 1523 1523 1524 1523 1524 1524 1524 1525 1527 1527 1528 1528 1528 1529 1530 1531 1531 1531 1531 1531 1530 1530 1529 1529 1529 1528 1527 1527 1526 1525 1524 1523 1522 1522 1520 1518 1517 1517 1515 1513 1512 1511 1509 1508 1506 1504 1502 1500 1499 1499 1500 1500 1497 1493 1493 1494 1492 1492 1492 1492 1491 1490 1488 1488 1489 1489 1489 1490
1518 1519 1519 1520 1520 1521 1521 1521 1522 1522 1522 1522 1521 1521 1521 1521 1521 1521 1521 1521 1521 1521 1521 1522 1523 1524 1525 1526 1526 1526 1527 1529 1529 1529 1529 1529 1529 1528 1528 1527 1527 1527 1526 1525 1525 1524 1523 1522 1521 1520 1519 1518 1517 1515 1514 1513 1511 1510 1509 1507 1505 1504 1501 1499 1497 1496 1495 1496 1497 1495 1490 1489 1490 1489 1488 1489 1488 1487 1487 1485 1484 1485 1485 1485 1485
1517 1518 1518 1519 1519 1519 1520 1520 1520 1520 1520 1520 1520 1519 1519 1518 1518 1518 1518 1519 1519 1519 1519 1520 1521 1523 1524 1525 1525 1524 1525 1526 1527 1527 1527 1527 1526 1526 1525 1525 1525 1524 1523 1523 1522 1522 1521 1520 1519 1518 1517 1516 1514 1513 1511 1510 1509 1507 1505 1504 1503 1501 1498 1495 1492 1491 1491 1492 1493 1492 1488 1485 1486 1486 1484 1485 1484 1483 1483 1482 1481 1481 1481 1482 1482
1516 1516 1517 1517 1517 1518 1518 1518 1518 1518 1518 1518 1518 1518 1517 1517 1516 1516 1516 1517 1517 1518 1518 1519 1520 1521 1522 1523 1522 1522 1523 1524 1524 1524 1524 1524 1524 1523 1523 1523 1522 1522 1521 1521 1520 1520 1519 1517 1516 1515 1514 1513 1512 1510 1509 1508 1506 1504 1502 1499 1499 1498 1495 1491 1488 1486 1486 1487 1488 1488 1485 1482 1483 1483 1481 1481 1481 1481 1480 1480 1479 1479 1479 1479 1479
1514 1514 1515 1516 1516 1517 1517 1517 1517 1517 1517 1517 1517 1517 1516 1516 1516 1515 1515 1515 1516 1516 1517 1517 1518 1519 1520 1520 1521 1521 1522 1522 1522 1522 1522 1522 1521 1521 1521 1520 1520 1520 1519 1518 1517 1517 1516 1515 1514 1513 1512 1511 1509 1507 1506 1505 1503 1502 1499 1496 1495 1494 1491 1488 1485 1482 1481 1482 1484 1485 1482 1479 1480 1480 1479 1478 1477 1478 1478 1478 1477 1476 1476 1476 1476
1512 1513 1514 1515 1515 1515 1516 1516 1516 1516 1516 1516 1516 1516 1516 1515 1515 1515 1515 1515 1515 1516 1516 1517 1517 1518 1518 1519 1520 1520 1520 1520 1520 1520 1520 1520 1519 1519 1518 1518 1518 1517 1516 1515 1514 1513 1513 1512 1511 1510 1508 1507 1505 1503 1502 1500 1499 1498 1496 1494 1493 1491 1488 1485 1484 1481 1477 1477 1480 1482 1479 1477 1477 1477 1477 1476 1473 1473 1475 1476 1475 1474 1474 1474 1474